Showing default

ES'HAIL 2, 43700

Orbit data source: Space-Track

ES'HAIL 2, 43700 is a payload satellite owned by Es'hailsat (QA) in GEO that was launched on Thu, 15 Nov 2018 UTC via an FALCON 9 launch vehicle from the Air Force Eastern Test Range (AFETR). Payload-class satellites include a variety of spacecraft equipped with specific instruments for various scientific and technological missions. These include communications satellites like Starlink; space stations such as the ISS; scientific satellites like the Hubble; Earth observation satellites from companies like Planet Labs, Umbra, and HawkEye 360; GPS; miniature CubeSats for education and research; and military/defense satellites.

Not visible in the next 10 days
Identifier
43700, 2018-090A
Orbit
GEO
Last TLE update
15 hours ago
Origin
Manufacturer
MELCO
Mission
Operational Commercial Communications
Bus & Motor
DS-2000, R-4D-11
Mass
~5,300 kg wet, ~2,000 kg dry
Launch date (UTC)
2018-11-15 (7 years ago)
Launch vehicle
FALCON 9
Launch site
Air Force Eastern Test Range (AFETR)
Object type
Payload
Rocket body
Debris
Shape & HBR
Box + 2 Pan, 25.3 m
Radar Cross Section
52.659 m²

Expand to show TLE details & history

TLE from 15 hours ago
0 ES'HAIL 2
1 43700U 18090A   25191.49534483  .00000157  00000-0  00000-0 0  9993
2 43700   0.0214  34.4127 0002755 112.8146 345.5653  1.00272833 24256
Epoch: 2025-07-10T11:53Z
TLE epoch observation values (Epoch: 2025-07-10T11:53:17.793Z)
Latitude
0.04772°
Longitude
25.80339°
Altitude
35,774.513 km
Speed
3.076 km/s
True Right ascension
08h 51m 09s
True Declination
0° 02' 52"
Sunlit
Object was in daylight at epoch
Visualization orbit readout
Latitude
-0.03259°
Longitude
-114.54625°
Altitude
35,796.209 km
Speed
3.074 km/s
Apparent Right ascension
23h 48m 24s
Apparent Declination
-5° 08' 19"
Sunlit
Object is in daylight
Visualization observer readout
Local Sidereal Time
14:46:04
Azimuth
60.913° ENE
Elevation
-37.092°
Doppler factor
1
Orbital elements
Apogee altitude
35,798.988 km
Perigee altitude
35,775.755 km
Semi-major axis
42,165.509 km
Eccentricity
0.00028
Inclination
0.0214°
RAAN
34.4127°
Arg. of periapsis
112.8146°
True anomaly
Unknown
Mean anomaly
345.5653°
Eccentric anomaly
Unknown
Mean motion
0.25067 °/min
Orbital period
1,436.14 mins
BSTAR
0
Loading historical data...
43700 neighbors
Loading maneuver chart data...
Loading SW <> Apogee altitude chart data...
Loading historical data...
Loading historical data...
Loading historical data...
Loading historical data...
Loading historical data...
Loading historical data...
Loading historical data...
Other satellites on launch #90 in the year 2018 (2018-11-15 UTC)

ES'HAIL 2 Visibility

Observer location: undefined°, undefined°

ES'HAIL 2 is likely not visible in the next few days
Span
Click to sort rows by Start time (UTC) header in descending order
Start Az.
Max El. time (UTC)
Max El. Az.
Max El.
End time (UTC)
End Az.
|